Terug naar catalogus

STARLINK-11296

ActiefCommunicatieVLEO
NORAD 61699·PAYLOAD·🇺🇸 United States

Gelanceerd Oct 30, 2024 vanaf Vandenberg Space Force Base

Loading…

Volgende Passages (komende 24 uur)

TLE

VersSource: CelesTrak SupGP

Epoch: Sep 14, 2026, 20:49 UTC

1 61699C 24195N   26257.86784722  .00024269  00000+0  19986-3 0  2573
2 61699  53.1574 173.3489 0001138 100.4172 153.1834 15.69703478    17

Volg STARLINK-11296 in realtime met AllMySat

Download on the App Store